STARLINK-30528, 57967

Orbit data source: Space-Track

STARLINK-30528, 57967 is a payload satellite owned by SpaceX/Seattle (US) in LEO that was launched on Sat, 30 Sep 2023 UTC via an FALCON 9 launch vehicle from the Air Force Eastern Test Range (AFETR). Payload-class satellites include a variety of spacecraft equipped with specific instruments for various scientific and technological missions. These include communications satellites like Starlink; space stations such as the ISS; scientific satellites like the Hubble; Earth observation satellites from companies like Planet Labs, Umbra, and HawkEye 360; GPS; miniature CubeSats for education and research; and military/defense satellites.

Loading next visibility...
Identifier
57967, 2023-151D
Orbit
LEO
Country
Flag of USUS
Related business
Manufacturer
SpaceX/Seattle
Mission
Operational Commercial Communications
Bus & Motor
STARLINK V2M, Unknown motor
Mass
730 kg wet, ~700 kg dry
Launch date (UTC)
2023-09-30 (3 years ago)
Launch vehicle
FALCON 9
Launch site
Air Force Eastern Test Range (AFETR)
Object type
Payload
Rocket body
Debris
Shape & HBR
Box + 2 Pan, 17.7 m
Radar Cross Section
33.884 m², Large (>1 m²)

Expand to show TLE details & history
Last TLE update: 2 days ago

TLE from 2 days ago
0 STARLINK-30528
1 57967U 23151D   26174.51930689  .00000550  00000-0  29519-4 0  9997
2 57967  43.0040  98.1674 0001323 274.1277  85.9423 15.27576268151952
Epoch: 2026-06-23T12:27Z
TLE epoch observation values (Epoch: 2026-06-23T12:27:48.115Z)
Latitude
-0.00004°
Longitude
-0.47283°
Altitude
482.772 km
Speed
7.626 km/s
True Right ascension
06h 32m 40s
True Declination
0° 00' 00"
Sunlit
Object was in daylight at epoch
Visualization orbit readout
Latitude
Unknown
Longitude
Unknown
Altitude
Unknown
Speed
Unknown
Apparent Right ascension
Unknown
Apparent Declination
Unknown
Sunlit
N/A
Visualization observer readout
Local Sidereal Time
13:37:35
Azimuth
Unknown
Elevation
Unknown
Doppler factor
Unknown
Orbital elements
Apogee altitude
485.913 km
Perigee altitude
484.097 km
Semi-major axis
6,863.142 km
Eccentricity
0.00013
Inclination
43.004°
RAAN
98.1674°
Arg. of periapsis
274.1277°
True anomaly
85.95742°
Mean anomaly
85.9423°
Eccentric anomaly
85.94986°
Mean motion
3.81732 °/min
Orbital period
94.31 mins
BSTAR
0.000029519
Loading maneuver chart data...
Computing Atmospheric mass density...
Loading historical data...
Loading historical data...
Loading historical data...
Loading historical data...
Loading historical data...
Loading historical data...
Loading historical data...

Documentation

Showing up to 5 results
|